Location: Prague
(50.0830°N, 14.4670°E)
Time: 19:17:07
(UTC+02:00)

ISS - Pass Details

Date: 27 September 2021
Orbit: 417 x 423 km, 51.6° (Epoch: 25 October)

Event Time Altitude Azimuth Distance (km) Brightness Sun altitude
Rises 21:48:07 0° 287° (WNW) 2,369 1.2 -28.0°
Reaches altitude 10° 21:50:15 10° 282° (WNW) 1,503 -0.2 -28.3°
Enters shadow 21:51:06 16° 277° (W) 1,177 -0.9 -28.4°
